THORAD DELTA 1 DEB, 8185

Orbit data source: Space-Track

THORAD DELTA 1 DEB, 8185 is space debris in SSO originally from a launch on Fri, 15 Nov 1974 UTC launched from the Air Force Western Test Range (AFWTR). Debris objects in space refer to the collection of defunct objects orbiting the Earth. Examples of debris include non-operational satellites, rocket bodies, and fragments generated from explosions, collisions, or faulty payload assembly.

Loading next visibility...
Identifier
8185, 1974-089BB
Orbit
SSO
Country
Flag of USUS
Related business
Manufacturer
Unknown
Mission
Spacecraft
Bus & Motor
Unknown
Mass
Unknown
Launch date (UTC)
1974-11-15 (51 years ago)
Launch vehicle
Unknown
Launch site
Air Force Western Test Range (AFWTR)
Object type
Payload
Rocket body
Debris
Shape & HBR
Unknown shape, 0.4 m
Radar Cross Section
Small (<0.1 m²)

Expand to show TLE details & history
Last TLE update: 15 hours ago

TLE from 15 hours ago
0 THORAD DELTA 1 DEB
1 08185U 74089BB  25288.75615812  .00000031  00000-0  54354-3 0  9998
2 08185 101.5246 215.9882 0068676 260.1052 127.4930 12.40487851304459
Epoch: 2025-10-15T18:08Z
TLE epoch observation values (Epoch: 2025-10-15T18:08:52.061Z)
Latitude
27.64033°
Longitude
-86.85413°
Altitude
1,540.818 km
Speed
7.083 km/s
True Right ascension
13h 59m 33s
True Declination
27° 30' 48"
Sunlit
Object was in daylight at epoch
Visualization orbit readout
Latitude
Unknown
Longitude
Unknown
Altitude
Unknown
Speed
Unknown
Apparent Right ascension
Unknown
Apparent Declination
Unknown
Sunlit
N/A
Visualization observer readout
Local Sidereal Time
03:36:28
Azimuth
Unknown
Elevation
Unknown
Doppler factor
Unknown
Orbital elements
Apogee altitude
1,556.2 km
Perigee altitude
1,447.964 km
Semi-major axis
7,880.219 km
Eccentricity
0.00687
Inclination
101.5246°
RAAN
215.9882°
Arg. of periapsis
260.1052°
True anomaly
128.11414°
Mean anomaly
127.493°
Eccentric anomaly
127.8039°
Mean motion
3.10267 °/min
Orbital period
116.03 mins
BSTAR
0.00054354
Loading maneuver chart data...
Computing Atmospheric mass density...

Documentation

Showing up to 5 results
|